Terminal Aerodrome Forecast
Issued by NWS Chicago, IL

Home | Current Version | Previous Version | Text Only | Print | Product List | Glossary Off
Versions: 1 2 3 4 5 6 7 8 9 10 11 12 13 14 15 16 17 18 19 20 21 22 23 24 25 26 27 28 29 30 31 32 33 34 35 36

000
FTUS43 KLOT 180500
TAFRFD
TAF
KRFD 180530Z 1806/1906 02007KT P6SM SKC
     FM180900 VRB02KT 1SM BR BKN004
      TEMPO 1809/1813 1/2SM FG VV002
     FM181400 VRB03KT 6SM BR BKN007
     FM181600 19008KT P6SM BKN015
     FM181900 20008KT P6SM SCT040 BKN200
     FM182200 21007KT P6SM SHRA VCTS SCT045CB
     FM190300 21008KT 6SM -TSRA SCT035CB BKN050=

USA.gov is the U.S. government's official web portal to all federal, state and local government web resources and services.